STARLINK-11365, 62886

Orbit data source: Space-Track

STARLINK-11365, 62886 is a payload satellite owned by SpaceX/Seattle (US) in LEO that was launched on Tue, 04 Feb 2025 UTC via an FALCON 9 launch vehicle from the Air Force Eastern Test Range (AFETR). Payload-class satellites include a variety of spacecraft equipped with specific instruments for various scientific and technological missions. These include communications satellites like Starlink; space stations such as the ISS; scientific satellites like the Hubble; Earth observation satellites from companies like Planet Labs, Umbra, and HawkEye 360; GPS; miniature CubeSats for education and research; and military/defense satellites.

Loading next visibility...
Identifier
62886, 2025-024H
Orbit
LEO
Country
Flag of USUS
Related business
Manufacturer
SpaceX/Seattle
Mission
Operational Commercial Communications
Bus & Motor
STARLINK V2MD, Unknown motor
Mass
960 kg wet, ~910 kg dry
Launch date (UTC)
2025-02-04 (9 months ago)
Launch vehicle
FALCON 9
Launch site
Air Force Eastern Test Range (AFETR)
Object type
Payload
Rocket body
Debris
Shape & HBR
Box + 2 Pan, 18.1 m
Radar Cross Section
36.964 m², Large (>1 m²)

Expand to show TLE details & history
Last TLE update: 23 hours ago

TLE from 23 hours ago
0 STARLINK-11365
1 62886U 25024H   25302.85875202  .00288501  00000-0  21569-2 0  9991
2 62886  42.9987 249.7618 0003174 290.6817  69.3710 15.71034889 42891
Epoch: 2025-10-29T20:36Z
TLE epoch observation values (Epoch: 2025-10-29T20:36:36.174Z)
Latitude
-0.00004°
Longitude
-97.81482°
Altitude
354.957 km
Speed
7.698 km/s
True Right ascension
16h 39m 02s
True Declination
0° 00' 00"
Sunlit
Object was in daylight at epoch
Visualization orbit readout
Latitude
Unknown
Longitude
Unknown
Altitude
Unknown
Speed
Unknown
Apparent Right ascension
Unknown
Apparent Declination
Unknown
Sunlit
N/A
Visualization observer readout
Local Sidereal Time
15:01:33
Azimuth
Unknown
Elevation
Unknown
Doppler factor
Unknown
Orbital elements
Apogee altitude
360.058 km
Perigee altitude
355.782 km
Semi-major axis
6,736.057 km
Eccentricity
0.00032
Inclination
42.9987°
RAAN
249.7618°
Arg. of periapsis
290.6817°
True anomaly
69.40504°
Mean anomaly
69.371°
Eccentric anomaly
69.38802°
Mean motion
3.92586 °/min
Orbital period
91.7 mins
BSTAR
0.0021569
Loading maneuver chart data...
Computing Atmospheric mass density...
Loading historical data...
Loading historical data...
Loading historical data...
Loading historical data...
Loading historical data...
Loading historical data...
Loading historical data...

Documentation

Showing up to 5 results
|